カタログに戻る

COSMOS 1579 COOLANT

LostLEO
NORAD 27911·DEBRIS·🇷🇺 Russia

打ち上げ Jun 29, 1984 から Baikonur Cosmodrome

Loading…

次のパス (今後24時間)

TLE

古いSource: Space-Track

元期: Dec 16, 2023, 23:44 UTC

1 27911U 84069AD  23350.98938590  .00000186  00000-0  21650-3 0  9993
2 27911  65.0463 122.1341 0056655 312.6915  46.9384 13.91025722 68307

AllMySatでCOSMOS 1579 COOLANTをリアルタイム追跡

Download on the App Store